Patterson, LA

2:31 PM CST on November 22, 2019 (GMT -0600)
Williams Memorial

Weather History for KPTN - September, 2019

Change the Weather History Date:

Sunday, September 15, 2019

  Actual Average Record
Temperature  
Mean Temperature 83 °F -  
Max Temperature 91 °F 85 °F 93 °F (2018)
Min Temperature 75 °F 69 °F 64 °F (1999)
Cooling Degree Days 18    
Growing Degree Days 33 (Base 50)    
Moisture  
Dew Point 74 °F    
Average Humidity 80    
Maximum Humidity 94    
Minimum Humidity 55    
Precipitation  
Precipitation 0.00 in - - ()
Sea Level Pressure  
Sea Level Pressure 30.01 in    
Wind  
Wind Speed 7 mph (ENE)    
Max Wind Speed 15 mph    
Max Gust Speed 22 mph    
Visibility 10 miles    
Events      
Averages and records for this station are not official NWS values.
T = Trace of Precipitation, MM = Missing Value Source: NWS Daily Summary

Daily Weather History Graph

Daily Weather History Graph

Search for Another Location

Airport or City:

Astronomy

Sep. 15, 2019 Rise Set
Actual Time 6:49 AM CDT 7:10 PM CDT
Civil Twilight 6:26 AM CDT 7:34 PM CDT
Nautical Twilight 5:58 AM CDT 8:02 PM CDT
Astronomical Twilight 5:29 AM CDT 8:30 PM CDT
Moon 8:22 PM CDT (9/15) 7:58 AM CDT (9/15)
Length of Visible Light 13h 08m
Length of Day
12h 20m
Full, 98% of the Moon is Illuminated
Sep 15
Full
Sep 21
Last Quarter
Sep 28
New
Oct 5
First Quarter
Oct 13
Full

Hourly Weather History & Observations

Time (CDT) Temp. Heat Index Dew Point Humidity Pressure Visibility Wind Dir Wind Speed Gust Speed Precip Events Conditions
12:56 AM 77.0 °F - 75.0 °F 94% 30.05 in 10.0 mi North 4.6 mph - N/A   Clear
1:56 AM 75.9 °F - 73.9 °F 94% 30.04 in 10.0 mi NNE 3.5 mph - N/A   Clear
2:56 AM 77.0 °F - 73.9 °F 90% 30.03 in 10.0 mi NNE 4.6 mph - N/A   Clear
4:56 AM 75.9 °F - 73.9 °F 94% 30.02 in 10.0 mi NNE 5.8 mph - N/A   Clear
5:56 AM 75.9 °F - 73.9 °F 94% 30.03 in 10.0 mi NNE 5.8 mph - N/A   Clear
6:56 AM 75.9 °F - 73.0 °F 91% 30.04 in 10.0 mi NNE 6.9 mph - N/A   Clear
7:56 AM 77.0 °F - 73.0 °F 88% 30.04 in 10.0 mi NNE 5.8 mph - N/A   Clear
8:56 AM 79.0 °F - 75.0 °F 88% 30.04 in 10.0 mi ENE 9.2 mph - N/A   Clear
9:56 AM 84.0 °F 91.9 °F 75.0 °F 74% 30.04 in 10.0 mi NE 9.2 mph - N/A   Clear
10:56 AM 84.9 °F 94.1 °F 75.9 °F 74% 30.03 in 10.0 mi ENE 10.4 mph - N/A   Clear
12:56 PM 90.0 °F 100.2 °F 75.0 °F 61% 30.01 in 10.0 mi ENE 13.8 mph - N/A   Mostly Cloudy
1:56 PM 91.0 °F 99.3 °F 73.0 °F 55% 29.99 in 10.0 mi NE 12.7 mph - N/A   Clear
2:56 PM 88.0 °F 94.7 °F 72.0 °F 59% 29.97 in 10.0 mi ENE 15.0 mph 21.9 mph N/A   Clear
3:56 PM 90.0 °F 99.0 °F 73.9 °F 59% 29.97 in 10.0 mi NE 12.7 mph 19.6 mph N/A   Partly Cloudy
4:56 PM 86.0 °F 91.5 °F 71.1 °F 61% 29.98 in 10.0 mi ESE 9.2 mph - N/A   Clear
5:56 PM 84.0 °F 89.6 °F 72.0 °F 67% 29.99 in 10.0 mi ESE 5.8 mph - N/A   Clear
6:56 PM 81.0 °F 87.3 °F 75.9 °F 85% 29.98 in 10.0 mi East 3.5 mph - N/A   Clear
7:56 PM 79.0 °F - 75.9 °F 90% 29.99 in 10.0 mi ESE 3.5 mph - N/A   Clear
8:56 PM 80.1 °F 85.4 °F 75.9 °F 87% 30.00 in 10.0 mi ESE 5.8 mph - N/A   Mostly Cloudy
9:56 PM 80.1 °F 85.4 °F 75.9 °F 87% 30.01 in 10.0 mi East 5.8 mph - N/A   Mostly Cloudy
10:56 PM 80.1 °F 85.4 °F 75.9 °F 87% 30.01 in 10.0 mi ESE 4.6 mph - N/A   Mostly Cloudy
11:56 PM 78.1 °F - 75.0 °F 90% 30.01 in 10.0 mi Calm Calm - N/A   Clear